Time,TemperatureF,DewpointF,PressureIn,WindDirection,WindDirectionDegrees,WindSpeedMPH,WindSpeedGustMPH,Humidity,HourlyPrecipIn,Conditions,Clouds,dailyrainin,SoftwareType,DateUTC
2013-03-02 00:01:00,62.0,57.0,30.12,East,79,1.0,-999.0,84,-99.99,,,-99.99,,2013-03-02 10:01:00,
2013-03-02 00:12:00,62.0,57.0,30.12,East,79,1.0,-999.0,84,-99.99,,,-99.99,,2013-03-02 10:12:00,
2013-03-02 00:21:00,62.0,57.0,30.12,ENE,78,1.0,-999.0,85,-99.99,,,-99.99,,2013-03-02 10:21:00,
2013-03-02 00:31:00,62.0,58.0,30.11,East,79,1.0,-999.0,86,-99.99,,,-99.99,,2013-03-02 10:31:00,
2013-03-02 00:42:00,62.0,58.0,30.11,East,79,1.0,-999.0,86,-99.99,,,-99.99,,2013-03-02 10:42:00,
2013-03-02 00:52:00,63.0,58.0,30.12,East,86,2.0,-999.0,84,-99.99,,,-99.99,,2013-03-02 10:52:00,
2013-03-02 01:01:00,63.0,57.0,30.12,ENE,76,1.0,-999.0,82,-99.99,,,-99.99,,2013-03-02 11:01:00,
2013-03-02 01:11:00,63.0,57.0,30.12,ENE,76,1.0,-999.0,82,-99.99,,,-99.99,,2013-03-02 11:11:00,
2013-03-02 01:21:00,63.0,58.0,30.11,ESE,109,1.0,-999.0,84,-99.99,,,-99.99,,2013-03-02 11:21:00,
2013-03-02 01:31:00,64.0,59.0,30.11,East,95,1.0,-999.0,84,-99.99,,,-99.99,,2013-03-02 11:31:00,
2013-03-02 01:41:00,64.0,59.0,30.11,East,95,1.0,-999.0,84,-99.99,,,-99.99,,2013-03-02 11:41:00,
2013-03-02 01:52:00,64.0,59.0,30.11,East,79,1.0,-999.0,84,-99.99,,,-99.99,,2013-03-02 11:52:00,
2013-03-02 02:02:00,64.0,59.0,30.10,East,88,1.0,-999.0,84,-99.99,,,-99.99,,2013-03-02 12:02:00,
2013-03-02 02:11:00,64.0,59.0,30.10,East,88,1.0,-999.0,84,-99.99,,,-99.99,,2013-03-02 12:11:00,
2013-03-02 02:21:00,64.0,59.0,30.10,East,95,1.0,-999.0,84,-99.99,,,-99.99,,2013-03-02 12:21:00,
2013-03-02 02:32:00,64.0,59.0,30.10,East,87,1.0,-999.0,85,-99.99,,,-99.99,,2013-03-02 12:32:00,
2013-03-02 02:42:00,64.0,59.0,30.10,East,87,1.0,-999.0,85,-99.99,,,-99.99,,2013-03-02 12:42:00,
2013-03-02 02:53:00,64.0,59.0,30.10,East,97,1.0,-999.0,84,-99.99,,,-99.99,,2013-03-02 12:53:00,
2013-03-02 03:01:00,64.0,59.0,30.09,ESE,103,1.0,-999.0,84,-99.99,,,-99.99,,2013-03-02 13:01:00,
2013-03-02 03:11:00,64.0,59.0,30.09,ESE,103,1.0,-999.0,84,-99.99,,,-99.99,,2013-03-02 13:11:00,
2013-03-02 03:21:00,64.0,59.0,30.09,ESE,103,2.0,-999.0,84,-99.99,,,-99.99,,2013-03-02 13:21:00,
2013-03-02 03:31:00,64.0,58.0,30.09,ENE,71,2.0,-999.0,82,-99.99,,,-99.99,,2013-03-02 13:31:00,
2013-03-02 03:41:00,64.0,58.0,30.09,ENE,71,2.0,-999.0,82,-99.99,,,-99.99,,2013-03-02 13:41:00,
2013-03-02 03:52:00,63.0,57.0,30.08,ENE,69,1.0,-999.0,82,-99.99,,,-99.99,,2013-03-02 13:52:00,
2013-03-02 04:01:00,63.0,58.0,30.08,ENE,69,0.0,-999.0,83,-99.99,,,-99.99,,2013-03-02 14:01:00,
2013-03-02 04:11:00,63.0,58.0,30.08,ENE,69,0.0,-999.0,83,-99.99,,,-99.99,,2013-03-02 14:11:00,
2013-03-02 04:21:00,62.0,56.0,30.08,ENE,69,0.0,-999.0,82,-99.99,,,-99.99,,2013-03-02 14:21:00,
2013-03-02 04:31:00,63.0,58.0,30.08,East,79,0.0,-999.0,83,-99.99,,,-99.99,,2013-03-02 14:31:00,
2013-03-02 04:41:00,63.0,58.0,30.08,East,79,0.0,-999.0,83,-99.99,,,-99.99,,2013-03-02 14:41:00,
2013-03-02 04:52:00,63.0,57.0,30.08,East,93,1.0,-999.0,82,-99.99,,,-99.99,,2013-03-02 14:52:00,
2013-03-02 05:01:00,64.0,59.0,30.08,ESE,107,2.0,-999.0,83,-99.99,,,-99.99,,2013-03-02 15:01:00,
2013-03-02 05:11:00,64.0,59.0,30.08,ESE,107,2.0,-999.0,83,-99.99,,,-99.99,,2013-03-02 15:11:00,
2013-03-02 05:21:00,64.0,59.0,30.08,East,90,2.0,-999.0,83,-99.99,,,-99.99,,2013-03-02 15:21:00,
2013-03-02 05:31:00,64.0,59.0,30.08,East,90,2.0,-999.0,83,-99.99,,,-99.99,,2013-03-02 15:31:00,
2013-03-02 05:41:00,64.0,59.0,30.08,East,90,2.0,-999.0,83,-99.99,,,-99.99,,2013-03-02 15:41:00,
2013-03-02 05:52:00,64.0,58.0,30.08,East,98,1.0,-999.0,82,-99.99,,,-99.99,,2013-03-02 15:52:00,
2013-03-02 06:01:00,64.0,58.0,30.08,ENE,78,1.0,-999.0,82,-99.99,,,-99.99,,2013-03-02 16:01:00,
2013-03-02 06:11:00,64.0,58.0,30.08,ENE,78,1.0,-999.0,82,-99.99,,,-99.99,,2013-03-02 16:11:00,
2013-03-02 06:21:00,63.0,58.0,30.09,ENE,64,2.0,-999.0,83,-99.99,,,-99.99,,2013-03-02 16:21:00,
2013-03-02 06:31:00,63.0,58.0,30.09,ENE,63,1.0,-999.0,84,-99.99,,,-99.99,,2013-03-02 16:31:00,
2013-03-02 06:41:00,63.0,58.0,30.09,ENE,63,1.0,-999.0,84,-99.99,,,-99.99,,2013-03-02 16:41:00,
2013-03-02 06:52:00,64.0,59.0,30.10,East,82,1.0,-999.0,84,-99.99,,,-99.99,,2013-03-02 16:52:00,
2013-03-02 07:01:00,64.0,59.0,30.11,East,92,1.0,-999.0,83,-99.99,,,-99.99,,2013-03-02 17:01:00,
2013-03-02 07:11:00,64.0,59.0,30.11,East,92,1.0,-999.0,83,-99.99,,,-99.99,,2013-03-02 17:11:00,
2013-03-02 07:21:00,64.0,59.0,30.11,East,80,1.0,-999.0,85,-99.99,,,-99.99,,2013-03-02 17:21:00,
2013-03-02 07:31:00,64.0,59.0,30.12,ENE,76,0.0,-999.0,84,-99.99,,,-99.99,,2013-03-02 17:31:00,
2013-03-02 07:41:00,64.0,59.0,30.12,ENE,76,0.0,-999.0,84,-99.99,,,-99.99,,2013-03-02 17:41:00,
2013-03-02 07:52:00,65.0,60.0,30.13,East,89,0.0,-999.0,85,-99.99,,,-99.99,,2013-03-02 17:52:00,
2013-03-02 08:01:00,65.0,61.0,30.13,East,89,0.0,-999.0,87,-99.99,,,-99.99,,2013-03-02 18:01:00,
2013-03-02 08:11:00,65.0,61.0,30.13,East,89,0.0,-999.0,87,-99.99,,,-99.99,,2013-03-02 18:11:00,
2013-03-02 08:21:00,65.0,61.0,30.14,East,89,0.0,-999.0,87,-99.99,,,-99.99,,2013-03-02 18:21:00,
2013-03-02 08:31:00,66.0,62.0,30.14,East,89,0.0,-999.0,87,-99.99,,,-99.99,,2013-03-02 18:31:00,
2013-03-02 08:41:00,66.0,62.0,30.14,East,89,0.0,-999.0,87,-99.99,,,-99.99,,2013-03-02 18:41:00,
2013-03-02 08:52:00,66.0,62.0,30.14,East,89,0.0,-999.0,86,-99.99,,,-99.99,,2013-03-02 18:52:00,
2013-03-02 09:01:00,67.0,62.0,30.15,East,89,0.0,-999.0,84,-99.99,,,-99.99,,2013-03-02 19:01:00,
2013-03-02 09:11:00,67.0,62.0,30.15,East,89,0.0,-999.0,84,-99.99,,,-99.99,,2013-03-02 19:11:00,
2013-03-02 09:21:00,67.0,61.0,30.16,East,100,0.0,-999.0,82,-99.99,,,-99.99,,2013-03-02 19:21:00,
2013-03-02 09:31:00,68.0,62.0,30.16,ESE,116,0.0,-999.0,81,-99.99,,,-99.99,,2013-03-02 19:31:00,
2013-03-02 09:42:00,68.0,62.0,30.16,ESE,116,0.0,-999.0,81,-99.99,,,-99.99,,2013-03-02 19:42:00,
2013-03-02 09:52:00,68.0,61.0,30.16,South,181,0.0,-999.0,79,-99.99,,,-99.99,,2013-03-02 19:52:00,
2013-03-02 10:01:00,69.0,62.0,30.16,SSE,160,0.0,-999.0,78,-99.99,,,-99.99,,2013-03-02 20:01:00,
2013-03-02 10:11:00,69.0,62.0,30.16,SSE,160,0.0,-999.0,78,-99.99,,,-99.99,,2013-03-02 20:11:00,
2013-03-02 10:21:00,70.0,61.0,30.17,South,190,1.0,-999.0,72,-99.99,,,-99.99,,2013-03-02 20:21:00,
2013-03-02 10:31:00,70.0,61.0,30.16,South,176,1.0,-999.0,72,-99.99,,,-99.99,,2013-03-02 20:31:00,
2013-03-02 10:41:00,70.0,61.0,30.16,South,176,1.0,-999.0,72,-99.99,,,-99.99,,2013-03-02 20:41:00,
2013-03-02 10:52:00,71.0,59.0,30.16,South,171,1.0,-999.0,65,-99.99,,,-99.99,,2013-03-02 20:52:00,
2013-03-02 11:02:00,73.0,59.0,30.15,SSE,157,1.0,-999.0,61,-99.99,,,-99.99,,2013-03-02 21:02:00,
2013-03-02 11:11:00,73.0,59.0,30.15,SSE,157,1.0,-999.0,61,-99.99,,,-99.99,,2013-03-02 21:11:00,
2013-03-02 11:21:00,74.0,62.0,30.15,South,190,3.0,-999.0,66,-99.99,,,-99.99,,2013-03-02 21:21:00,
2013-03-02 11:31:00,74.0,61.0,30.14,SE,142,3.0,-999.0,63,-99.99,,,-99.99,,2013-03-02 21:31:00,
2013-03-02 11:41:00,74.0,61.0,30.14,SE,142,3.0,-999.0,63,-99.99,,,-99.99,,2013-03-02 21:41:00,
2013-03-02 11:52:00,74.0,60.0,30.14,SSW,198,4.0,-999.0,62,-99.99,,,-99.99,,2013-03-02 21:52:00,
2013-03-02 12:01:00,75.0,61.0,30.14,WNW,301,4.0,-999.0,61,-99.99,,,-99.99,,2013-03-02 22:01:00,
2013-03-02 12:11:00,75.0,61.0,30.14,WNW,301,4.0,-999.0,61,-99.99,,,-99.99,,2013-03-02 22:11:00,
2013-03-02 12:21:00,75.0,61.0,30.14,WNW,301,4.0,-999.0,61,-99.99,,,-99.99,,2013-03-02 22:21:00,
2013-03-02 12:31:00,73.0,61.0,30.12,WSW,252,3.0,-999.0,67,-99.99,,,-99.99,,2013-03-02 22:31:00,
2013-03-02 12:42:00,73.0,61.0,30.12,WSW,252,3.0,-999.0,67,-99.99,,,-99.99,,2013-03-02 22:42:00,
2013-03-02 12:52:00,72.0,60.0,30.12,NNW,329,2.0,-999.0,67,-99.99,,,-99.99,,2013-03-02 22:52:00,
2013-03-02 13:01:00,72.0,60.0,30.12,NNW,329,2.0,-999.0,67,-99.99,,,-99.99,,2013-03-02 23:01:00,
2013-03-02 13:11:00,72.0,61.0,30.10,SW,226,1.0,-999.0,69,-99.99,,,-99.99,,2013-03-02 23:11:00,
2013-03-02 13:21:00,72.0,61.0,30.10,SW,226,1.0,-999.0,69,-99.99,,,-99.99,,2013-03-02 23:21:00,
2013-03-02 13:31:00,72.0,62.0,30.10,SW,225,3.0,-999.0,71,-99.99,,,-99.99,,2013-03-02 23:31:00,
2013-03-02 13:42:00,72.0,62.0,30.10,SW,225,3.0,-999.0,71,-99.99,,,-99.99,,2013-03-02 23:42:00,
2013-03-02 13:52:00,71.0,61.0,30.09,SSW,209,3.0,-999.0,71,-99.99,,,-99.99,,2013-03-02 23:52:00,
2013-03-02 14:02:00,72.0,62.0,30.08,WSW,239,4.0,-999.0,71,-99.99,,,-99.99,,2013-03-03 00:02:00,
2013-03-02 14:11:00,72.0,62.0,30.08,WSW,239,4.0,-999.0,71,-99.99,,,-99.99,,2013-03-03 00:11:00,
2013-03-02 14:22:00,72.0,61.0,30.07,South,186,4.0,-999.0,69,-99.99,,,-99.99,,2013-03-03 00:22:00,
2013-03-02 14:31:00,72.0,62.0,30.06,SSW,202,3.0,-999.0,71,-99.99,,,-99.99,,2013-03-03 00:31:00,
2013-03-02 14:42:00,72.0,62.0,30.06,SSW,202,3.0,-999.0,71,-99.99,,,-99.99,,2013-03-03 00:42:00,
2013-03-02 14:52:00,72.0,61.0,30.06,South,186,3.0,-999.0,68,-99.99,,,-99.99,,2013-03-03 00:52:00,
2013-03-02 15:01:00,72.0,60.0,30.06,WSW,255,3.0,-999.0,65,-99.99,,,-99.99,,2013-03-03 01:01:00,
2013-03-02 15:11:00,72.0,60.0,30.06,WSW,255,3.0,-999.0,65,-99.99,,,-99.99,,2013-03-03 01:11:00,
2013-03-02 15:21:00,71.0,59.0,30.06,SSW,205,2.0,-999.0,67,-99.99,,,-99.99,,2013-03-03 01:21:00,
2013-03-02 15:31:00,71.0,59.0,30.06,SE,136,2.0,-999.0,67,-99.99,,,-99.99,,2013-03-03 01:31:00,
2013-03-02 15:41:00,71.0,59.0,30.06,SE,136,2.0,-999.0,67,-99.99,,,-99.99,,2013-03-03 01:41:00,
2013-03-02 15:52:00,71.0,60.0,30.06,SSE,156,3.0,-999.0,68,-99.99,,,-99.99,,2013-03-03 01:52:00,
2013-03-02 16:01:00,71.0,59.0,30.06,SE,124,2.0,-999.0,67,-99.99,,,-99.99,,2013-03-03 02:01:00,
2013-03-02 16:11:00,71.0,59.0,30.06,SE,124,2.0,-999.0,67,-99.99,,,-99.99,,2013-03-03 02:11:00,
2013-03-02 16:21:00,71.0,60.0,30.06,South,184,3.0,-999.0,68,-99.99,,,-99.99,,2013-03-03 02:21:00,
2013-03-02 16:31:00,71.0,60.0,30.06,South,170,2.0,-999.0,68,-99.99,,,-99.99,,2013-03-03 02:31:00,
2013-03-02 16:41:00,71.0,60.0,30.06,South,170,2.0,-999.0,68,-99.99,,,-99.99,,2013-03-03 02:41:00,
2013-03-02 16:52:00,72.0,60.0,30.07,ESE,108,2.0,-999.0,66,-99.99,,,-99.99,,2013-03-03 02:52:00,
2013-03-02 17:01:00,72.0,60.0,30.07,ESE,119,3.0,-999.0,66,-99.99,,,-99.99,,2013-03-03 03:01:00,
2013-03-02 17:11:00,72.0,60.0,30.07,ESE,119,3.0,-999.0,66,-99.99,,,-99.99,,2013-03-03 03:11:00,
2013-03-02 17:21:00,72.0,60.0,30.08,SSW,202,2.0,-999.0,66,-99.99,,,-99.99,,2013-03-03 03:21:00,
2013-03-02 17:31:00,72.0,60.0,30.08,SSW,202,2.0,-999.0,66,-99.99,,,-99.99,,2013-03-03 03:31:00,
2013-03-02 17:41:00,72.0,60.0,30.08,SSW,202,2.0,-999.0,66,-99.99,,,-99.99,,2013-03-03 03:41:00,
2013-03-02 17:52:00,72.0,61.0,30.09,South,184,2.0,-999.0,69,-99.99,,,-99.99,,2013-03-03 03:52:00,
2013-03-02 18:01:00,72.0,62.0,30.09,South,173,2.0,-999.0,70,-99.99,,,-99.99,,2013-03-03 04:01:00,
2013-03-02 18:11:00,72.0,62.0,30.09,South,173,2.0,-999.0,70,-99.99,,,-99.99,,2013-03-03 04:11:00,
2013-03-02 18:21:00,71.0,61.0,30.09,SSW,192,2.0,-999.0,71,-99.99,,,-99.99,,2013-03-03 04:21:00,
2013-03-02 18:31:00,70.0,61.0,30.10,SSW,196,1.0,-999.0,73,-99.99,,,-99.99,,2013-03-03 04:31:00,
2013-03-02 18:41:00,70.0,61.0,30.10,SSW,196,1.0,-999.0,73,-99.99,,,-99.99,,2013-03-03 04:41:00,
2013-03-02 18:52:00,69.0,61.0,30.11,SSW,208,1.0,-999.0,75,-99.99,,,-99.99,,2013-03-03 04:52:00,
2013-03-02 19:01:00,69.0,61.0,30.11,SSW,199,0.0,-999.0,77,-99.99,,,-99.99,,2013-03-03 05:01:00,
2013-03-02 19:11:00,69.0,61.0,30.11,SSW,199,0.0,-999.0,77,-99.99,,,-99.99,,2013-03-03 05:11:00,
2013-03-02 19:21:00,69.0,61.0,30.11,SSW,199,0.0,-999.0,77,-99.99,,,-99.99,,2013-03-03 05:21:00,
2013-03-02 19:32:00,67.0,60.0,30.12,SSW,199,0.0,-999.0,79,-99.99,,,-99.99,,2013-03-03 05:32:00,
2013-03-02 19:42:00,67.0,60.0,30.12,SSW,199,0.0,-999.0,79,-99.99,,,-99.99,,2013-03-03 05:42:00,
2013-03-02 19:52:00,66.0,60.0,30.13,North,349,1.0,-999.0,80,-99.99,,,-99.99,,2013-03-03 05:52:00,
2013-03-02 20:01:00,66.0,60.0,30.14,North,349,0.0,-999.0,81,-99.99,,,-99.99,,2013-03-03 06:01:00,
2013-03-02 20:11:00,66.0,60.0,30.14,North,349,0.0,-999.0,81,-99.99,,,-99.99,,2013-03-03 06:11:00,
2013-03-02 20:21:00,66.0,60.0,30.14,NNE,12,0.0,-999.0,81,-99.99,,,-99.99,,2013-03-03 06:21:00,
2013-03-02 20:31:00,66.0,60.0,30.15,NNE,12,0.0,-999.0,82,-99.99,,,-99.99,,2013-03-03 06:31:00,
2013-03-02 20:42:00,66.0,60.0,30.15,NNE,12,0.0,-999.0,82,-99.99,,,-99.99,,2013-03-03 06:42:00,
2013-03-02 20:52:00,66.0,60.0,30.16,NNE,12,1.0,-999.0,82,-99.99,,,-99.99,,2013-03-03 06:52:00,
2013-03-02 21:01:00,64.0,59.0,30.16,NNE,12,0.0,-999.0,84,-99.99,,,-99.99,,2013-03-03 07:01:00,
2013-03-02 21:11:00,64.0,59.0,30.16,NNE,12,0.0,-999.0,84,-99.99,,,-99.99,,2013-03-03 07:11:00,
2013-03-02 21:21:00,64.0,60.0,30.16,NNE,12,0.0,-999.0,86,-99.99,,,-99.99,,2013-03-03 07:21:00,
2013-03-02 21:31:00,63.0,59.0,30.16,NNE,12,0.0,-999.0,87,-99.99,,,-99.99,,2013-03-03 07:31:00,
2013-03-02 21:42:00,63.0,59.0,30.16,NNE,12,0.0,-999.0,87,-99.99,,,-99.99,,2013-03-03 07:42:00,
2013-03-02 21:52:00,63.0,59.0,30.16,ENE,69,1.0,-999.0,87,-99.99,,,-99.99,,2013-03-03 07:52:00,
2013-03-02 22:01:00,63.0,59.0,30.16,ENE,77,2.0,-999.0,86,-99.99,,,-99.99,,2013-03-03 08:01:00,
2013-03-02 22:11:00,63.0,59.0,30.16,ENE,77,2.0,-999.0,86,-99.99,,,-99.99,,2013-03-03 08:11:00,
2013-03-02 22:21:00,64.0,60.0,30.16,East,84,1.0,-999.0,86,-99.99,,,-99.99,,2013-03-03 08:21:00,
2013-03-02 22:31:00,64.0,59.0,30.17,ENE,74,1.0,-999.0,85,-99.99,,,-99.99,,2013-03-03 08:31:00,
2013-03-02 22:41:00,64.0,59.0,30.17,ENE,74,1.0,-999.0,85,-99.99,,,-99.99,,2013-03-03 08:41:00,
2013-03-02 22:53:00,63.0,58.0,30.17,ENE,76,1.0,-999.0,85,-99.99,,,-99.99,,2013-03-03 08:53:00,
2013-03-02 23:01:00,63.0,58.0,30.17,East,80,1.0,-999.0,83,-99.99,,,-99.99,,2013-03-03 09:01:00,
2013-03-02 23:11:00,63.0,58.0,30.17,East,80,1.0,-999.0,83,-99.99,,,-99.99,,2013-03-03 09:11:00,
2013-03-02 23:21:00,63.0,58.0,30.17,ENE,78,1.0,-999.0,83,-99.99,,,-99.99,,2013-03-03 09:21:00,
2013-03-02 23:31:00,63.0,57.0,30.17,East,90,1.0,-999.0,82,-99.99,,,-99.99,,2013-03-03 09:31:00,
2013-03-02 23:41:00,63.0,57.0,30.17,East,90,1.0,-999.0,82,-99.99,,,-99.99,,2013-03-03 09:41:00,
2013-03-02 23:52:00,63.0,57.0,30.16,East,82,1.0,-999.0,80,-99.99,,,-99.99,,2013-03-03 09:52:00,